UPS9604 KBHM-KPHL

Flight info

Callsign UPS9604
Flight time N/A
Altitude 39000
Route MRICA GAD SITTR Q34 GVE PAATS4
Aircraft B752/M-SDE3FGHIM3RWXY/LB1

Departure

Time 2026-05-06 19:27
Airport Birmingham-Shuttlesworth International Airport (KBHM)

Arrival

Time N/A
Airport Philadelphia International Airport (KPHL)
Time Latitude Longitude Altitude Speed Heading
2026-05-06 18:58 33.55377 -86.76830 610 ft 0 kts 178°
2026-05-06 19:15 33.55389 -86.76830 610 ft 2 kts 178°
2026-05-06 19:16 33.55405 -86.76830 611 ft 2 kts 189°
2026-05-06 19:16 33.55419 -86.76825 611 ft 2 kts 204°
2026-05-06 19:16 33.55432 -86.76816 612 ft 2 kts 219°
2026-05-06 19:16 33.55442 -86.76803 612 ft 2 kts 234°
2026-05-06 19:17 33.55450 -86.76787 611 ft 2 kts 249°
2026-05-06 19:17 33.55453 -86.76770 611 ft 2 kts 264°
2026-05-06 19:17 33.55454 -86.76760 610 ft 1 kts 272°
2026-05-06 19:17 33.55454 -86.76758 610 ft 0 kts 271°
2026-05-06 19:19 33.55454 -86.76775 611 ft 7 kts 271°
2026-05-06 19:20 33.55455 -86.76859 611 ft 13 kts 270°
2026-05-06 19:20 33.55466 -86.76917 611 ft 5 kts 324°
2026-05-06 19:20 33.55521 -86.76879 612 ft 14 kts 54°
2026-05-06 19:20 33.55609 -86.76727 613 ft 25 kts 55°
2026-05-06 19:21 33.55711 -86.76550 615 ft 25 kts 55°
2026-05-06 19:21 33.55811 -86.76377 618 ft 24 kts 55°
2026-05-06 19:21 33.55906 -86.76212 619 ft 23 kts 55°
2026-05-06 19:21 33.56000 -86.76048 619 ft 23 kts 55°
2026-05-06 19:22 33.56093 -86.75886 619 ft 23 kts 56°
2026-05-06 19:22 33.56188 -86.75717 617 ft 24 kts 54°
2026-05-06 19:22 33.56286 -86.75551 620 ft 23 kts 54°
2026-05-06 19:22 33.56377 -86.75395 623 ft 22 kts 56°
2026-05-06 19:23 33.56463 -86.75244 624 ft 21 kts 53°
2026-05-06 19:23 33.56547 -86.75101 627 ft 20 kts 56°
2026-05-06 19:23 33.56601 -86.74942 629 ft 20 kts 86°
2026-05-06 19:23 33.56644 -86.74785 633 ft 22 kts 58°
2026-05-06 19:24 33.56751 -86.74596 635 ft 29 kts 56°
2026-05-06 19:24 33.56876 -86.74386 641 ft 30 kts 54°
2026-05-06 19:24 33.56945 -86.74266 644 ft 5 kts 55°
2026-05-06 19:24 33.56976 -86.74210 646 ft 11 kts 55°
2026-05-06 19:25 33.57041 -86.74098 649 ft 19 kts 55°
2026-05-06 19:25 33.57115 -86.73968 653 ft 17 kts 56°
2026-05-06 19:25 33.57174 -86.73866 661 ft 11 kts 49°
2026-05-06 19:25 33.57264 -86.73859 663 ft 18 kts 325°
2026-05-06 19:26 33.57306 -86.73980 659 ft 6 kts 237°
2026-05-06 19:26 33.57286 -86.74018 657 ft 14 kts 237°
2026-05-06 19:26 33.57107 -86.74326 646 ft 85 kts 236°
2026-05-06 19:26 33.56605 -86.75187 720 ft 156 kts 233°
2026-05-06 19:27 33.55983 -86.76434 1302 ft 189 kts 245°
2026-05-06 19:27 33.55772 -86.77969 2238 ft 199 kts 270°
2026-05-06 19:27 33.56121 -86.79756 2591 ft 241 kts 284°
2026-05-06 19:27 33.56707 -86.81700 3550 ft 252 kts 288°
2026-05-06 19:28 33.57661 -86.83422 4639 ft 263 kts 309°
2026-05-06 19:28 33.59053 -86.85145 4448 ft 307 kts 309°
2026-05-06 19:28 33.60685 -86.86739 5862 ft 305 kts 326°
2026-05-06 19:28 33.62630 -86.87557 7353 ft 301 kts 346°
2026-05-06 19:29 33.64699 -86.87430 8667 ft 306 kts 11°
2026-05-06 19:29 33.66650 -86.86266 9498 ft 326 kts 37°
2026-05-06 19:29 33.68079 -86.84168 10439 ft 336 kts 61°
2026-05-06 19:29 33.68873 -86.81435 10842 ft 359 kts 82°
2026-05-06 19:30 33.69212 -86.78391 11355 ft 378 kts 80°
2026-05-06 19:30 33.69967 -86.75260 11740 ft 401 kts 69°
2026-05-06 19:30 33.71061 -86.72124 12386 ft 411 kts 65°
2026-05-06 19:30 33.72279 -86.68995 13272 ft 414 kts 64°
2026-05-06 19:31 33.73568 -86.65855 13953 ft 424 kts 62°
2026-05-06 19:31 33.74918 -86.62675 14749 ft 429 kts 61°
2026-05-06 19:31 33.77711 -86.56218 16279 ft 440 kts 60°
2026-05-06 19:32 33.79144 -86.52931 16996 ft 447 kts 59°
2026-05-06 19:32 33.80600 -86.49597 17732 ft 452 kts 60°
2026-05-06 19:32 33.82081 -86.46202 18392 ft 460 kts 59°
2026-05-06 19:32 33.83565 -86.42797 19206 ft 462 kts 59°
2026-05-06 19:33 33.85076 -86.39336 19803 ft 470 kts 59°
2026-05-06 19:33 33.86595 -86.35847 20462 ft 476 kts 59°
2026-05-06 19:33 33.88147 -86.32279 21120 ft 480 kts 59°
2026-05-06 19:33 33.89638 -86.28782 21670 ft 487 kts 62°
2026-05-06 19:34 33.91082 -86.25088 22374 ft 489 kts 62°
2026-05-06 19:34 33.92555 -86.21343 22843 ft 497 kts 61°
2026-05-06 19:34 33.94036 -86.17572 23556 ft 499 kts 62°
2026-05-06 19:34 33.95529 -86.13770 24045 ft 505 kts 61°
2026-05-06 19:35 33.97200 -86.10035 24638 ft 504 kts 51°
2026-05-06 19:35 33.99289 -86.06675 25228 ft 501 kts 43°
2026-05-06 19:35 34.01707 -86.03600 25776 ft 500 kts 39°
2026-05-06 19:35 34.04141 -86.00580 26291 ft 504 kts 39°
2026-05-06 19:36 34.06609 -85.97541 26951 ft 504 kts 38°
2026-05-06 19:36 34.09110 -85.94481 27329 ft 510 kts 38°
2026-05-06 19:36 34.11613 -85.91420 27932 ft 512 kts 38°
2026-05-06 19:36 34.14153 -85.88321 28381 ft 514 kts 38°
2026-05-06 19:37 34.16678 -85.85236 28843 ft 519 kts 38°
2026-05-06 19:37 34.19239 -85.82112 29185 ft 524 kts 38°
2026-05-06 19:37 34.21805 -85.78973 29765 ft 524 kts 38°
2026-05-06 19:37 34.23531 -85.76866 29903 ft 530 kts 38°
2026-05-06 19:38 34.27026 -85.72588 30497 ft 533 kts 38°
2026-05-06 19:38 34.29630 -85.69397 30934 ft 536 kts 39°
2026-05-06 19:38 34.32267 -85.66164 31175 ft 541 kts 39°
2026-05-06 19:38 34.34888 -85.62945 31731 ft 541 kts 39°
2026-05-06 19:39 34.37514 -85.59712 32359 ft 537 kts 38°
2026-05-06 19:39 34.40129 -85.56496 32776 ft 538 kts 39°
2026-05-06 19:39 34.42759 -85.53261 33190 ft 539 kts 39°
2026-05-06 19:39 34.45368 -85.50038 33875 ft 535 kts 38°
2026-05-06 19:40 34.48010 -85.46784 34184 ft 539 kts 37°
2026-05-06 19:40 34.50636 -85.43538 34602 ft 539 kts 38°
2026-05-06 19:40 34.53299 -85.40252 34900 ft 542 kts 38°
2026-05-06 19:40 34.55902 -85.37017 35781 ft 532 kts 37°
2026-05-06 19:41 34.61167 -85.30504 36215 ft 539 kts 37°
2026-05-06 19:41 34.63803 -85.27231 36562 ft 539 kts 37°
2026-05-06 19:41 34.66436 -85.23965 36862 ft 539 kts 36°
2026-05-06 19:42 34.69057 -85.20706 37145 ft 540 kts 37°
2026-05-06 19:42 34.71679 -85.17445 37416 ft 541 kts 37°
2026-05-06 19:42 34.76936 -85.10886 38165 ft 538 kts 36°
2026-05-06 19:43 34.82205 -85.04317 38477 ft 543 kts 35°
2026-05-06 19:43 34.84873 -85.00975 38861 ft 540 kts 36°
2026-05-06 19:43 34.87512 -84.97676 38947 ft 539 kts 35°
2026-05-06 19:44 34.92789 -84.91063 38959 ft 540 kts 34°
2026-05-06 19:44 34.98076 -84.84428 38936 ft 542 kts 34°
2026-05-06 19:45 35.03358 -84.77783 38960 ft 543 kts 34°
2026-05-06 19:45 35.08639 -84.71119 38955 ft 539 kts 35°
2026-05-06 19:46 35.13893 -84.64484 38956 ft 539 kts 34°
2026-05-06 19:46 35.19162 -84.57818 38968 ft 542 kts 35°
2026-05-06 19:47 35.24409 -84.51159 38962 ft 543 kts 35°
2026-05-06 19:47 35.29645 -84.44502 38974 ft 540 kts 34°
2026-05-06 19:48 35.34843 -84.37888 38991 ft 541 kts 34°
2026-05-06 19:48 35.40062 -84.31232 38941 ft 544 kts 36°
2026-05-06 19:49 35.45336 -84.24487 38950 ft 545 kts 35°
2026-05-06 19:49 35.50546 -84.17808 38939 ft 539 kts 35°
2026-05-06 19:50 35.55771 -84.11105 38936 ft 542 kts 35°
2026-05-06 19:50 35.61001 -84.04381 38941 ft 545 kts 35°
2026-05-06 19:51 35.66224 -83.97644 38942 ft 543 kts 35°
2026-05-06 19:51 35.71422 -83.90929 38957 ft 542 kts 35°
2026-05-06 19:52 35.76621 -83.84207 38944 ft 543 kts 35°
2026-05-06 19:52 35.81840 -83.77442 38956 ft 547 kts 35°
2026-05-06 19:53 35.87071 -83.70642 38950 ft 546 kts 35°
2026-05-06 19:53 35.92254 -83.63889 38955 ft 542 kts 35°
2026-05-06 19:54 35.97422 -83.57149 38945 ft 541 kts 35°
2026-05-06 19:54 36.02582 -83.50403 38942 ft 541 kts 36°
2026-05-06 19:55 36.07758 -83.43628 38953 ft 545 kts 36°
2026-05-06 19:55 36.12946 -83.36813 38959 ft 543 kts 35°
2026-05-06 19:56 36.18108 -83.30021 38932 ft 541 kts 36°
2026-05-06 19:56 36.23263 -83.23230 38936 ft 543 kts 36°
2026-05-06 19:57 36.28422 -83.16418 38926 ft 545 kts 36°
2026-05-06 19:57 36.33579 -83.09587 38917 ft 542 kts 36°
2026-05-06 19:58 36.38729 -83.02760 38936 ft 545 kts 36°
2026-05-06 19:58 36.43894 -82.95898 38926 ft 547 kts 36°
2026-05-06 19:59 36.49044 -82.89029 38926 ft 540 kts 36°
2026-05-06 19:59 36.54164 -82.82205 38936 ft 544 kts 36°
2026-05-06 20:00 36.59318 -82.75308 38945 ft 544 kts 36°
2026-05-06 20:00 36.64438 -82.68444 38956 ft 542 kts 36°
2026-05-06 20:01 36.69574 -82.61551 38962 ft 546 kts 36°
2026-05-06 20:01 36.74741 -82.54593 38970 ft 547 kts 36°
2026-05-06 20:02 36.79880 -82.47661 38969 ft 546 kts 36°
2026-05-06 20:02 36.85032 -82.40697 38970 ft 546 kts 36°
2026-05-06 20:03 36.90166 -82.33746 38974 ft 547 kts 37°
2026-05-06 20:03 36.95328 -82.26739 38956 ft 550 kts 37°
2026-05-06 20:04 37.00501 -82.19699 38958 ft 549 kts 36°
2026-05-06 20:04 37.05675 -82.12649 38953 ft 552 kts 37°
2026-05-06 20:05 37.10845 -82.05575 38940 ft 546 kts 36°
2026-05-06 20:05 37.15955 -81.98583 38953 ft 547 kts 37°
2026-05-06 20:06 37.21102 -81.91520 38958 ft 549 kts 37°
2026-05-06 20:06 37.26275 -81.84403 38961 ft 546 kts 37°
2026-05-06 20:07 37.31432 -81.77300 38950 ft 549 kts 37°
2026-05-06 20:07 37.36568 -81.70200 38950 ft 544 kts 37°
2026-05-06 20:08 37.41699 -81.63106 38961 ft 549 kts 37°
2026-05-06 20:08 37.46880 -81.55917 38961 ft 554 kts 37°
2026-05-06 20:09 37.52020 -81.48756 38957 ft 543 kts 37°
2026-05-06 20:09 37.57119 -81.41661 38968 ft 547 kts 37°
2026-05-06 20:10 37.62219 -81.34543 38967 ft 550 kts 38°
2026-05-06 20:10 37.67381 -81.27313 38952 ft 550 kts 38°
2026-05-06 20:11 37.72456 -81.20035 38964 ft 555 kts 43°